When you browse on this site, cookies collect data to enhance your experience and personalize the content and advertising you see.
Visit our Privacy Policy to learn more. By continuing to use the site, you agree to this use of cookies and data.
  • In Hungary
  • List of Countries
  • For 7 days
  • Water Temperature
  • Satellite Maps
  • Weather Map
  • News
  • Weather Widgets
  • user-avatar
    Login

    Hourly Weather Siteki

    Today, 15 December, Saturday

    Time Temperature Precipitation Wind Pressure Humidity
    00:00 +22°C° 0.1 mm 1 mps 721 mmHg 92%
    01:00 +22°C° 0.1 mm 1 mps 721 mmHg 91%
    02:00 +22°C° 0.1 mm 1 mps 721 mmHg 91%
    03:00 +22°C° 0 mm 1 mps 721 mmHg 92%
    04:00 +22°C° 0 mm 1 mps 721 mmHg 92%
    05:00 +22°C° 0 mm 1 mps 721 mmHg 93%
    06:00 +23°C° 0 mm 1 mps 721 mmHg 87%
    07:00 +24°C° 0 mm 2 mps 721 mmHg 80%
    08:00 +25°C° 0 mm 2 mps 721 mmHg 74%
    09:00 +28°C° 0 mm 2 mps 721 mmHg 65%
    10:00 +30°C° 0 mm 3 mps 720 mmHg 56%
    11:00 +33°C° 0 mm 3 mps 720 mmHg 47%
    12:00 +34°C° 0 mm 3 mps 720 mmHg 44%
    13:00 +36°C° 0 mm 3 mps 719 mmHg 40%
    14:00 +37°C° 0 mm 3 mps 719 mmHg 37%
    15:00 +36°C° 0 mm 4 mps 718 mmHg 40%
    16:00 +35°C° 0 mm 4 mps 718 mmHg 43%
    17:00 +34°C° 0 mm 4 mps 718 mmHg 45%
    18:00 +30°C° 0.4 mm 4 mps 718 mmHg 57%
    19:00 +27°C° 0.4 mm 3 mps 718 mmHg 69%
    20:00 +24°C° 0.4 mm 3 mps 719 mmHg 81%
    21:00 +24°C° 1.1 mm 2 mps 719 mmHg 84%
    22:00 +23°C° 1.1 mm 2 mps 720 mmHg 88%
    23:00 +23°C° 1.1 mm 1 mps 721 mmHg 92%

    Tomorrow, 16 December, Sunday

    Time Temperature Precipitation Wind Pressure Humidity
    00:00 +22°C° 1.3 mm 1 mps 721 mmHg 93%
    01:00 +22°C° 1.3 mm 1 mps 721 mmHg 93%
    02:00 +22°C° 1.3 mm 1 mps 720 mmHg 93%
    03:00 +22°C° 0.1 mm 1 mps 720 mmHg 94%
    04:00 +22°C° 0.1 mm 1 mps 720 mmHg 94%
    05:00 +22°C° 0.1 mm 1 mps 720 mmHg 95%
    06:00 +23°C° 0 mm 1 mps 720 mmHg 91%
    07:00 +24°C° 0 mm 1 mps 721 mmHg 86%
    08:00 +23°C° 0 mm 0 mps 721 mmHg 81%
    09:00 +27°C° 0 mm 1 mps 721 mmHg 74%
    10:00 +28°C° 0 mm 1 mps 721 mmHg 67%
    11:00 +29°C° 0 mm 1 mps 720 mmHg 60%
    12:00 +31°C° 0 mm 2 mps 720 mmHg 55%
    13:00 +32°C° 0 mm 2 mps 719 mmHg 50%
    14:00 +35°C° 0 mm 2 mps 719 mmHg 44%
    15:00 +34°C° 0 mm 3 mps 718 mmHg 46%
    16:00 +33°C° 0 mm 3 mps 718 mmHg 48%
    17:00 +33°C° 0 mm 4 mps 717 mmHg 49%
    18:00 +29°C° 0 mm 3 mps 718 mmHg 58%
    19:00 +27°C° 0 mm 2 mps 718 mmHg 68%
    20:00 +24°C° 0 mm 1 mps 719 mmHg 77%
    21:00 +24°C° 0 mm 1 mps 719 mmHg 81%
    22:00 +23°C° 0 mm 1 mps 719 mmHg 85%
    23:00 +23°C° 0 mm 1 mps 719 mmHg 89%

    Day after tomorrow, 17 December, Monday

    Time Temperature Precipitation Wind Pressure Humidity
    00:00 +23°C° 0 mm 1 mps 719 mmHg 90%
    01:00 +21°C° 0 mm 0 mps 719 mmHg 90%
    02:00 +21°C° 0 mm 0 mps 718 mmHg 91%
    03:00 +23°C° 0 mm 1 mps 718 mmHg 93%
    04:00 +22°C° 0 mm 1 mps 718 mmHg 95%
    05:00 +22°C° 0 mm 1 mps 719 mmHg 97%
    06:00 +24°C° 0 mm 1 mps 719 mmHg 87%
    07:00 +25°C° 0 mm 1 mps 719 mmHg 77%
    08:00 +27°C° 0 mm 2 mps 720 mmHg 67%
    09:00 +30°C° 0 mm 2 mps 719 mmHg 59%
    10:00 +32°C° 0 mm 2 mps 719 mmHg 50%
    11:00 +35°C° 0 mm 3 mps 719 mmHg 42%
    12:00 +36°C° 0 mm 3 mps 718 mmHg 39%
    13:00 +37°C° 0 mm 3 mps 717 mmHg 36%
    14:00 +39°C° 0 mm 3 mps 716 mmHg 33%
    15:00 +38°C° 0 mm 4 mps 716 mmHg 35%
    16:00 +37°C° 0 mm 4 mps 715 mmHg 37%
    17:00 +36°C° 0 mm 4 mps 715 mmHg 40%
    18:00 +33°C° 0 mm 3 mps 715 mmHg 50%
    19:00 +29°C° 0 mm 2 mps 716 mmHg 61%
    20:00 +26°C° 0 mm 2 mps 716 mmHg 71%
    21:00 +25°C° 0.1 mm 1 mps 716 mmHg 76%
    22:00 +24°C° 0.1 mm 1 mps 717 mmHg 81%
    23:00 +22°C° 0.1 mm 0 mps 717 mmHg 86%

    18 December, Tuesday

    Time Temperature Precipitation Wind Pressure Humidity
    00:00 +22°C° 0 mm 0 mps 717 mmHg 88%
    01:00 +21°C° 0 mm 0 mps 716 mmHg 89%
    02:00 +23°C° 0 mm 1 mps 716 mmHg 90%
    03:00 +23°C° 0 mm 1 mps 716 mmHg 90%
    04:00 +23°C° 0 mm 1 mps 716 mmHg 89%
    05:00 +23°C° 0 mm 1 mps 716 mmHg 89%
    06:00 +25°C° 0 mm 1 mps 717 mmHg 81%
    07:00 +27°C° 0 mm 1 mps 717 mmHg 73%
    08:00 +29°C° 0 mm 2 mps 718 mmHg 65%
    09:00 +31°C° 0 mm 2 mps 717 mmHg 55%
    10:00 +35°C° 0 mm 2 mps 717 mmHg 46%
    11:00 +37°C° 0 mm 3 mps 717 mmHg 36%
    12:00 +38°C° 0 mm 3 mps 716 mmHg 32%
    13:00 +39°C° 0 mm 3 mps 715 mmHg 28%
    14:00 +40°C° 0 mm 3 mps 715 mmHg 24%
    15:00 +39°C° 0 mm 3 mps 714 mmHg 27%
    16:00 +39°C° 0 mm 3 mps 714 mmHg 29%
    17:00 +38°C° 0 mm 4 mps 713 mmHg 31%
    18:00 +34°C° 0 mm 3 mps 713 mmHg 43%
    19:00 +30°C° 0 mm 3 mps 713 mmHg 54%
    20:00 +27°C° 0 mm 2 mps 714 mmHg 65%
    21:00 +27°C° 0 mm 2 mps 714 mmHg 70%
    22:00 +26°C° 0 mm 1 mps 715 mmHg 74%
    23:00 +25°C° 0 mm 1 mps 716 mmHg 78%

    19 December, Wednesday

    Time Temperature Precipitation Wind Pressure Humidity
    00:00 +25°C° 0.1 mm 1 mps 715 mmHg 80%
    01:00 +22°C° 0.1 mm 0 mps 715 mmHg 83%
    02:00 +22°C° 0.1 mm 0 mps 715 mmHg 85%
    03:00 +22°C° 0 mm 0 mps 714 mmHg 87%
    04:00 +22°C° 0 mm 0 mps 714 mmHg 88%
    05:00 +23°C° 0 mm 1 mps 714 mmHg 90%
    06:00 +25°C° 0 mm 1 mps 714 mmHg 79%
    07:00 +28°C° 0 mm 2 mps 715 mmHg 69%
    08:00 +30°C° 0 mm 2 mps 715 mmHg 58%
    09:00 +33°C° 0 mm 3 mps 715 mmHg 50%
    10:00 +36°C° 0 mm 3 mps 714 mmHg 41%
    11:00 +38°C° 0 mm 3 mps 714 mmHg 32%
    12:00 +40°C° 0 mm 3 mps 713 mmHg 29%
    13:00 +42°C° 0 mm 3 mps 713 mmHg 26%
    14:00 +43°C° 0 mm 3 mps 712 mmHg 23%
    15:00 +42°C° 0 mm 3 mps 712 mmHg 25%
    16:00 +42°C° 0 mm 3 mps 712 mmHg 27%
    17:00 +40°C° 0 mm 3 mps 712 mmHg 29%
    18:00 +36°C° 0.4 mm 3 mps 712 mmHg 40%
    19:00 +32°C° 0.4 mm 2 mps 712 mmHg 50%
    20:00 +29°C° 0.4 mm 2 mps 713 mmHg 61%
    21:00 +28°C° 2.2 mm 2 mps 714 mmHg 69%
    22:00 +27°C° 2.2 mm 2 mps 714 mmHg 76%
    23:00 +26°C° 2.2 mm 2 mps 715 mmHg 84%

    20 December, Thursday

    Time Temperature Precipitation Wind Pressure Humidity
    00:00 +25°C° 0.2 mm 2 mps 715 mmHg 86%
    01:00 +25°C° 0.2 mm 2 mps 715 mmHg 89%
    02:00 +24°C° 0.2 mm 2 mps 715 mmHg 91%
    03:00 +24°C° 0.1 mm 2 mps 715 mmHg 91%
    04:00 +24°C° 0.1 mm 2 mps 716 mmHg 91%
    05:00 +24°C° 0.1 mm 2 mps 716 mmHg 91%
    06:00 +24°C° 0.3 mm 2 mps 717 mmHg 88%
    07:00 +24°C° 0.3 mm 2 mps 717 mmHg 86%
    08:00 +24°C° 0.3 mm 2 mps 718 mmHg 83%
    09:00 +25°C° 0.1 mm 2 mps 718 mmHg 75%
    10:00 +26°C° 0.1 mm 2 mps 718 mmHg 67%
    11:00 +28°C° 0.1 mm 2 mps 718 mmHg 59%
    12:00 +29°C° 0 mm 2 mps 717 mmHg 57%
    13:00 +30°C° 0 mm 2 mps 717 mmHg 54%
    14:00 +31°C° 0 mm 3 mps 717 mmHg 51%
    15:00 +30°C° 0 mm 3 mps 717 mmHg 55%
    16:00 +29°C° 0 mm 3 mps 717 mmHg 59%
    17:00 +28°C° 0 mm 4 mps 717 mmHg 62%
    18:00 +26°C° 0.1 mm 4 mps 717 mmHg 67%
    19:00 +25°C° 0.1 mm 3 mps 718 mmHg 71%
    20:00 +24°C° 0.1 mm 3 mps 718 mmHg 76%
    21:00 +22°C° 0.1 mm 3 mps 719 mmHg 77%
    22:00 +22°C° 0.1 mm 3 mps 719 mmHg 78%
    23:00 +21°C° 0.1 mm 3 mps 720 mmHg 79%
    Show more